QPF
0.00 0.00 0.00 0.00 0.00 0.00 0.00 0.00 0.00 0.00 0.00 0.00 0.01 0.01 0.02 0.04 0.03 0.02 0.01 0.02 0.02 0.02 0.03 0.04 0.05 0.06 0.09 0.13 0.18 0.22 0.22 0.21 0.25 0.20 0.13 0.12 0.13 0.12 0.17 0.15 0.09 0.05 0.03 0.02
0.00 0.00 0.00 0.00 0.00 0.00 0.00 0.00 0.00 0.00 0.00 0.00 0.00 0.01 0.02 0.03 0.03 0.01 0.01 0.02 0.02 0.02 0.03 0.04 0.08 0.09 0.10 0.09 0.14 0.17 0.16 0.15 0.15 0.14 0.10 0.10 0.10 0.09 0.11 0.15 0.10 0.06 0.04 0.03
0.00 0.00 0.00 0.00 0.00 0.00 0.00 0.00 0.00 0.00 0.00 0.00 0.00 0.01 0.02 0.03 0.02 0.01 0.02 0.01 0.01 0.02 0.04 0.06 0.05 0.05 0.08 0.08 0.09 0.11 0.14 0.13 0.10 0.11 0.11 0.10 0.13 0.13 0.12 0.12 0.08 0.05 0.04 0.04
0.00 0.00 0.00 0.00 0.00 0.00 0.00 0.00 0.00 0.00 0.00 0.00 0.00 0.01 0.01 0.02 0.04 0.03 0.02 0.01 0.01 0.02 0.03 0.03 0.04 0.05 0.06 0.08 0.09 0.12 0.15 0.15 0.10 0.09 0.08 0.05 0.06 0.05 0.06 0.07 0.06 0.05 0.04 0.03
0.00 0.00 0.00 0.00 0.00 0.00 0.00 0.00 0.00 0.00 0.00 0.00 0.00 0.01 0.03 0.03 0.06 0.04 0.03 0.02 0.02 0.02 0.03 0.03 0.04 0.04 0.09 0.14 0.14 0.16 0.16 0.17 0.11 0.09 0.08 0.05 0.05 0.05 0.05 0.06 0.07 0.06 0.05 0.03
0.00 0.00 0.00 0.00 0.00 0.00 0.00 0.00 0.00 0.00 0.00 0.00 0.00 0.01 0.03 0.03 0.04 0.04 0.04 0.05 0.01 0.01 0.02 0.02 0.03 0.04 0.09 0.13 0.13 0.15 0.16 0.12 0.10 0.11 0.11 0.07 0.06 0.05 0.04 0.06 0.06 0.06 0.05 0.04
0.00 0.00 0.00 0.00 0.00 0.00 0.00 0.00 0.00 0.00 0.00 0.01 0.02 0.03 0.04 0.03 0.04 0.04 0.03 0.02 0.01 0.01 0.01 0.01 0.02 0.04 0.07 0.07 0.07 0.09 0.10 0.09 0.09 0.10 0.10 0.09 0.08 0.06 0.04 0.04 0.05 0.05 0.05 0.04
0.00 0.00 0.00 0.00 0.00 0.00 0.00 0.00 0.00 0.00 0.00 0.01 0.04 0.05 0.07 0.06 0.05 0.04 0.03 0.01 0.01 0.00 0.00 0.01 0.01 0.03 0.06 0.09 0.08 0.07 0.07 0.06 0.08 0.09 0.09 0.11 0.12 0.10 0.07 0.05 0.05 0.04 0.04 0.03
0.00 0.00 0.00 0.00 0.00 0.00 0.00 0.00 0.00 0.00 0.00 0.02 0.05 0.07 0.05 0.07 0.06 0.03 0.03 0.01 0.01 0.01 0.01 0.01 0.01 0.02 0.02 0.04 0.04 0.05 0.06 0.06 0.07 0.07 0.07 0.09 0.12 0.14 0.12 0.10 0.09 0.06 0.05 0.04
0.00 0.00 0.00 0.00 0.00 0.00 0.00 0.00 0.00 0.00 0.01 0.02 0.06 0.08 0.06 0.07 0.08 0.04 0.03 0.02 0.02 0.02 0.01 0.01 0.02 0.01 0.01 0.01 0.03 0.04 0.06 0.08 0.08 0.07 0.06 0.06 0.10 0.13 0.14 0.13 0.10 0.07 0.06 0.05
0.00 0.00 0.00 0.00 0.00 0.00 0.00 0.00 0.00 0.00 0.00 0.01 0.03 0.04 0.03 0.04 0.05 0.04 0.03 0.03 0.03 0.03 0.02 0.02 0.02 0.01 0.01 0.01 0.03 0.04 0.06 0.07 0.06 0.06 0.06 0.05 0.07 0.10 0.13 0.15 0.11 0.07 0.05 0.04
0.00 0.00 0.00 0.00 0.00 0.00 0.00 0.00 0.00 0.00 0.00 0.01 0.02 0.02 0.02 0.03 0.06 0.05 0.04 0.04 0.03 0.03 0.03 0.03 0.03 0.01 0.01 0.02 0.02 0.03 0.03 0.03 0.04 0.04 0.05 0.06 0.07 0.08 0.09 0.12 0.11 0.07 0.04 0.03
0.00 0.00 0.00 0.00 0.00 0.00 0.00 0.00 0.01 0.01 0.01 0.01 0.02 0.02 0.04 0.04 0.06 0.07 0.08 0.07 0.06 0.04 0.03 0.04 0.04 0.02 0.01 0.01 0.01 0.02 0.02 0.02 0.03 0.03 0.04 0.06 0.07 0.06 0.07 0.08 0.07 0.05 0.05 0.04
0.00 0.00 0.00 0.00 0.00 0.00 0.00 0.01 0.01 0.01 0.01 0.01 0.02 0.02 0.03 0.04 0.07 0.07 0.07 0.10 0.10 0.06 0.05 0.05 0.07 0.04 0.01 0.01 0.02 0.02 0.02 0.02 0.02 0.03 0.04 0.04 0.04 0.03 0.04 0.04 0.05 0.05 0.06 0.06
0.00 0.00 0.00 0.00 0.00 0.00 0.00 0.01 0.01 0.01 0.01 0.01 0.02 0.02 0.03 0.06 0.07 0.06 0.08 0.11 0.09 0.07 0.06 0.05 0.05 0.05 0.03 0.02 0.02 0.03 0.03 0.02 0.02 0.03 0.05 0.04 0.03 0.03 0.05 0.05 0.06 0.07 0.08 0.08
0.00 0.00 0.00 0.00 0.00 0.00 0.00 0.00 0.01 0.01 0.01 0.01 0.03 0.04 0.04 0.05 0.09 0.05 0.05 0.07 0.09 0.08 0.07 0.07 0.06 0.05 0.03 0.02 0.01 0.02 0.03 0.03 0.03 0.05 0.08 0.07 0.06 0.07 0.07 0.07 0.07 0.09 0.09 0.09
0.02 0.02 0.01 0.01 0.01 0.01 0.01 0.01 0.00 0.00 0.01 0.02 0.03 0.04 0.07 0.04 0.07 0.07 0.05 0.05 0.09 0.13 0.09 0.09 0.09 0.08 0.05 0.04 0.04 0.03 0.03 0.03 0.03 0.05 0.09 0.09 0.09 0.10 0.12 0.12 0.11 0.09 0.10 0.10
0.01 0.02 0.01 0.01 0.01 0.01 0.01 0.01 0.01 0.01 0.02 0.02 0.02 0.03 0.03 0.04 0.05 0.06 0.07 0.06 0.08 0.12 0.12 0.12 0.11 0.11 0.09 0.08 0.08 0.08 0.05 0.04 0.05 0.06 0.07 0.09 0.10 0.10 0.12 0.14 0.12 0.11 0.11 0.12
0.01 0.01 0.01 0.01 0.01 0.01 0.01 0.01 0.02 0.02 0.03 0.02 0.03 0.03 0.03 0.04 0.06 0.09 0.12 0.11 0.10 0.12 0.12 0.18 0.18 0.15 0.12 0.13 0.13 0.11 0.08 0.07 0.07 0.07 0.08 0.08 0.09 0.10 0.12 0.13 0.15 0.15 0.16 0.15
0.01 0.01 0.01 0.01 0.01 0.01 0.02 0.01 0.02 0.03 0.05 0.03 0.03 0.03 0.05 0.05 0.09 0.10 0.11 0.14 0.14 0.15 0.16 0.20 0.21 0.20 0.18 0.20 0.16 0.11 0.10 0.11 0.12 0.12 0.11 0.12 0.13 0.14 0.15 0.16 0.18 0.20 0.19 0.18
0.02 0.02 0.02 0.01 0.01 0.01 0.01 0.00 0.01 0.03 0.06 0.06 0.05 0.06 0.07 0.07 0.08 0.09 0.09 0.10 0.11 0.13 0.15 0.17 0.17 0.16 0.13 0.14 0.17 0.17 0.17 0.19 0.18 0.19 0.19 0.18 0.18 0.20 0.21 0.22 0.22 0.21 0.21 0.18
0.03 0.03 0.03 0.03 0.03 0.03 0.01 0.01 0.02 0.03 0.04 0.07 0.13 0.09 0.07 0.06 0.07 0.05 0.04 0.04 0.05 0.07 0.09 0.11 0.13 0.13 0.14 0.15 0.18 0.20 0.19 0.20 0.21 0.21 0.24 0.24 0.22 0.20 0.19 0.19 0.19 0.17 0.17 0.16
0.06 0.04 0.03 0.03 0.03 0.03 0.02 0.02 0.02 0.01 0.02 0.05 0.09 0.09 0.08 0.06 0.09 0.06 0.03 0.03 0.04 0.06 0.07 0.09 0.10 0.10 0.13 0.15 0.16 0.19 0.18 0.18 0.19 0.18 0.20 0.21 0.16 0.15 0.14 0.13 0.12 0.11 0.10 0.11
0.08 0.06 0.04 0.04 0.05 0.03 0.02 0.02 0.02 0.02 0.02 0.03 0.05 0.06 0.06 0.05 0.10 0.07 0.06 0.06 0.07 0.07 0.07 0.07 0.08 0.10 0.13 0.14 0.13 0.12 0.11 0.11 0.12 0.13 0.13 0.11 0.10 0.11 0.12 0.11 0.09 0.08 0.08 0.09
0.07 0.08 0.07 0.06 0.06 0.04 0.03 0.03 0.03 0.03 0.04 0.04 0.04 0.04 0.05 0.04 0.08 0.10 0.09 0.07 0.09 0.10 0.08 0.09 0.09 0.09 0.11 0.13 0.11 0.09 0.09 0.09 0.09 0.09 0.09 0.07 0.07 0.08 0.10 0.12 0.12 0.11 0.11 0.10
0.06 0.05 0.05 0.06 0.04 0.05 0.05 0.04 0.03 0.03 0.03 0.03 0.03 0.04 0.05 0.05 0.05 0.07 0.07 0.05 0.06 0.06 0.07 0.07 0.08 0.08 0.08 0.10 0.09 0.07 0.07 0.07 0.07 0.07 0.06 0.06 0.05 0.05 0.05 0.06 0.06 0.06 0.05 0.05
MSLP
1010.02 1010.79 1011.31 1011.56 1011.58 1011.43 1011.17 1010.86 1010.55 1010.25 1009.97 1009.69 1009.39 1009.08 1008.75 1008.42 1008.13 1007.89 1007.74 1007.69 1007.72 1007.82 1007.99 1008.19 1008.42 1008.68 1008.98 1009.33 1009.74 1010.21 1010.74 1011.30 1011.87 1012.40 1012.86 1013.24 1013.54 1013.75 1013.92 1014.08 1014.25 1014.48 1014.76 1015.11
1010.49 1011.07 1011.36 1011.41 1011.28 1011.07 1010.86 1010.69 1010.58 1010.52 1010.46 1010.35 1010.15 1009.85 1009.47 1009.03 1008.62 1008.28 1008.06 1007.98 1008.04 1008.21 1008.45 1008.71 1008.97 1009.20 1009.42 1009.65 1009.92 1010.27 1010.71 1011.23 1011.80 1012.39 1012.94 1013.42 1013.79 1014.06 1014.24 1014.36 1014.48 1014.63 1014.85 1015.14
1010.63 1010.98 1011.04 1010.90 1010.66 1010.44 1010.33 1010.36 1010.52 1010.74 1010.94 1011.03 1010.94 1010.66 1010.21 1009.66 1009.09 1008.61 1008.29 1008.16 1008.22 1008.43 1008.74 1009.06 1009.35 1009.58 1009.74 1009.89 1010.06 1010.31 1010.68 1011.17 1011.76 1012.41 1013.05 1013.62 1014.08 1014.41 1014.61 1014.71 1014.78 1014.86 1015.01 1015.24
1010.43 1010.55 1010.40 1010.11 1009.81 1009.65 1009.69 1009.98 1010.44 1010.98 1011.46 1011.76 1011.79 1011.52 1010.99 1010.29 1009.55 1008.90 1008.43 1008.21 1008.24 1008.47 1008.82 1009.20 1009.53 1009.78 1009.93 1010.02 1010.13 1010.31 1010.62 1011.09 1011.69 1012.39 1013.11 1013.77 1014.31 1014.70 1014.93 1015.04 1015.08 1015.11 1015.19 1015.36
1009.98 1009.88 1009.56 1009.16 1008.87 1008.82 1009.08 1009.65 1010.44 1011.30 1012.05 1012.55 1012.68 1012.41 1011.80 1010.94 1010.00 1009.16 1008.52 1008.19 1008.15 1008.37 1008.75 1009.17 1009.55 1009.82 1009.98 1010.05 1010.12 1010.24 1010.51 1010.95 1011.56 1012.28 1013.05 1013.79 1014.40 1014.86 1015.13 1015.26 1015.29 1015.29 1015.33 1015.46
1009.39 1009.10 1008.66 1008.23 1008.00 1008.10 1008.59 1009.45 1010.56 1011.72 1012.72 1013.38 1013.59 1013.31 1012.59 1011.57 1010.45 1009.41 1008.60 1008.13 1008.02 1008.20 1008.59 1009.05 1009.47 1009.78 1009.95 1010.02 1010.05 1010.14 1010.36 1010.76 1011.34 1012.07 1012.86 1013.64 1014.31 1014.83 1015.15 1015.32 1015.37 1015.38 1015.41 1015.51
1008.75 1008.34 1007.83 1007.42 1007.29 1007.57 1008.30 1009.42 1010.79 1012.19 1013.38 1014.17 1014.43 1014.13 1013.32 1012.16 1010.88 1009.67 1008.71 1008.12 1007.92 1008.06 1008.45 1008.93 1009.38 1009.72 1009.91 1009.98 1009.99 1010.03 1010.20 1010.54 1011.08 1011.77 1012.56 1013.35 1014.06 1014.62 1015.00 1015.22 1015.32 1015.36 1015.41 1015.52
1008.14 1007.66 1007.15 1006.81 1006.81 1007.25 1008.18 1009.51 1011.07 1012.63 1013.94 1014.80 1015.08 1014.75 1013.89 1012.64 1011.25 1009.93 1008.87 1008.19 1007.93 1008.04 1008.41 1008.90 1009.37 1009.73 1009.93 1010.00 1009.98 1009.99 1010.09 1010.37 1010.84 1011.47 1012.22 1012.99 1013.71 1014.30 1014.74 1015.02 1015.18 1015.27 1015.37 1015.51
1007.58 1007.10 1006.65 1006.41 1006.53 1007.12 1008.18 1009.63 1011.29 1012.91 1014.26 1015.14 1015.42 1015.08 1014.20 1012.93 1011.51 1010.16 1009.07 1008.36 1008.07 1008.16 1008.51 1009.00 1009.47 1009.84 1010.05 1010.11 1010.08 1010.05 1010.10 1010.31 1010.70 1011.26 1011.94 1012.68 1013.38 1013.99 1014.46 1014.79 1015.02 1015.18 1015.32 1015.51
1007.06 1006.65 1006.30 1006.18 1006.42 1007.10 1008.22 1009.69 1011.33 1012.92 1014.22 1015.07 1015.34 1015.01 1014.17 1012.96 1011.61 1010.32 1009.28 1008.60 1008.32 1008.40 1008.75 1009.22 1009.68 1010.04 1010.26 1010.32 1010.29 1010.24 1010.25 1010.40 1010.73 1011.21 1011.83 1012.50 1013.17 1013.77 1014.26 1014.63 1014.91 1015.12 1015.32 1015.54
1006.58 1006.28 1006.07 1006.07 1006.40 1007.11 1008.21 1009.60 1011.13 1012.58 1013.78 1014.55 1014.80 1014.51 1013.76 1012.69 1011.49 1010.35 1009.44 1008.85 1008.62 1008.72 1009.05 1009.50 1009.94 1010.30 1010.51 1010.59 1010.57 1010.53 1010.55 1010.67 1010.95 1011.38 1011.92 1012.53 1013.15 1013.72 1014.20 1014.59 1014.90 1015.15 1015.38 1015.62
1006.12 1005.99 1005.92 1006.04 1006.43 1007.12 1008.12 1009.35 1010.68 1011.94 1012.96 1013.63 1013.85 1013.63 1013.02 1012.14 1011.15 1010.23 1009.50 1009.04 1008.89 1009.01 1009.33 1009.75 1010.16 1010.51 1010.73 1010.84 1010.87 1010.88 1010.92 1011.06 1011.33 1011.72 1012.21 1012.75 1013.31 1013.83 1014.29 1014.67 1014.98 1015.24 1015.48 1015.73
1005.74 1005.77 1005.87 1006.09 1006.50 1007.13 1007.98 1008.99 1010.06 1011.07 1011.89 1012.43 1012.62 1012.47 1012.02 1011.37 1010.64 1009.96 1009.43 1009.12 1009.05 1009.19 1009.49 1009.87 1010.26 1010.59 1010.83 1010.99 1011.09 1011.18 1011.30 1011.49 1011.78 1012.16 1012.60 1013.09 1013.58 1014.04 1014.45 1014.80 1015.09 1015.35 1015.59 1015.82
1005.49 1005.69 1005.92 1006.22 1006.63 1007.17 1007.84 1008.60 1009.38 1010.12 1010.72 1011.12 1011.28 1011.20 1010.91 1010.49 1010.01 1009.58 1009.25 1009.08 1009.07 1009.23 1009.49 1009.83 1010.17 1010.48 1010.75 1010.98 1011.17 1011.37 1011.59 1011.86 1012.19 1012.58 1013.00 1013.43 1013.86 1014.25 1014.60 1014.90 1015.17 1015.41 1015.64 1015.87
1005.44 1005.78 1006.13 1006.48 1006.87 1007.29 1007.77 1008.27 1008.78 1009.24 1009.63 1009.89 1010.01 1009.99 1009.85 1009.63 1009.38 1009.15 1008.99 1008.93 1008.97 1009.11 1009.33 1009.60 1009.89 1010.19 1010.49 1010.78 1011.08 1011.39 1011.72 1012.09 1012.48 1012.88 1013.28 1013.66 1014.02 1014.35 1014.64 1014.90 1015.15 1015.38 1015.62 1015.85
1005.64 1006.09 1006.50 1006.88 1007.23 1007.54 1007.83 1008.10 1008.34 1008.56 1008.74 1008.88 1008.96 1008.98 1008.96 1008.90 1008.83 1008.77 1008.74 1008.74 1008.80 1008.90 1009.05 1009.25 1009.49 1009.76 1010.08 1010.43 1010.82 1011.24 1011.68 1012.13 1012.58 1012.99 1013.38 1013.71 1014.01 1014.27 1014.52 1014.75 1015.00 1015.25 1015.52 1015.79
1006.10 1006.59 1007.03 1007.40 1007.69 1007.89 1008.02 1008.09 1008.12 1008.14 1008.16 1008.18 1008.22 1008.28 1008.34 1008.40 1008.46 1008.51 1008.56 1008.60 1008.63 1008.68 1008.76 1008.87 1009.05 1009.30 1009.62 1010.02 1010.48 1010.98 1011.51 1012.02 1012.50 1012.92 1013.28 1013.58 1013.83 1014.04 1014.26 1014.50 1014.76 1015.06 1015.39 1015.73
1006.77 1007.24 1007.66 1007.99 1008.21 1008.31 1008.31 1008.23 1008.10 1007.98 1007.88 1007.83 1007.84 1007.91 1008.03 1008.18 1008.32 1008.44 1008.52 1008.57 1008.57 1008.56 1008.55 1008.59 1008.71 1008.92 1009.23 1009.65 1010.15 1010.71 1011.28 1011.83 1012.33 1012.74 1013.07 1013.33 1013.54 1013.74 1013.95 1014.21 1014.53 1014.91 1015.34 1015.78
1007.56 1007.96 1008.31 1008.57 1008.71 1008.73 1008.63 1008.44 1008.22 1008.00 1007.84 1007.75 1007.76 1007.85 1008.02 1008.22 1008.41 1008.57 1008.67 1008.70 1008.67 1008.60 1008.53 1008.51 1008.56 1008.74 1009.03 1009.45 1009.97 1010.55 1011.14 1011.69 1012.17 1012.57 1012.87 1013.10 1013.29 1013.49 1013.72 1014.03 1014.43 1014.91 1015.45 1016.01
1008.35 1008.64 1008.88 1009.05 1009.11 1009.06 1008.89 1008.65 1008.38 1008.14 1007.95 1007.87 1007.89 1008.02 1008.22 1008.47 1008.70 1008.89 1009.00 1009.02 1008.96 1008.85 1008.74 1008.67 1008.69 1008.83 1009.11 1009.51 1010.02 1010.59 1011.16 1011.70 1012.16 1012.53 1012.81 1013.03 1013.22 1013.43 1013.71 1014.09 1014.57 1015.15 1015.80 1016.47
1009.04 1009.19 1009.32 1009.38 1009.36 1009.25 1009.05 1008.79 1008.52 1008.29 1008.13 1008.08 1008.15 1008.32 1008.57 1008.86 1009.13 1009.34 1009.46 1009.49 1009.43 1009.31 1009.18 1009.09 1009.09 1009.21 1009.47 1009.86 1010.34 1010.88 1011.44 1011.95 1012.38 1012.73 1013.00 1013.22 1013.43 1013.68 1014.01 1014.46 1015.02 1015.68 1016.41 1017.17
1009.57 1009.58 1009.58 1009.55 1009.45 1009.30 1009.08 1008.84 1008.60 1008.41 1008.31 1008.32 1008.45 1008.68 1008.98 1009.31 1009.62 1009.86 1010.02 1010.07 1010.03 1009.93 1009.81 1009.73 1009.73 1009.85 1010.09 1010.46 1010.92 1011.44 1011.96 1012.44 1012.86 1013.21 1013.49 1013.73 1013.97 1014.26 1014.65 1015.15 1015.76 1016.48 1017.26 1018.05
1009.90 1009.79 1009.69 1009.57 1009.41 1009.22 1009.01 1008.79 1008.61 1008.48 1008.46 1008.54 1008.73 1009.02 1009.38 1009.75 1010.11 1010.40 1010.59 1010.69 1010.69 1010.63 1010.56 1010.51 1010.54 1010.66 1010.91 1011.26 1011.70 1012.19 1012.69 1013.16 1013.57 1013.92 1014.22 1014.50 1014.79 1015.13 1015.56 1016.09 1016.74 1017.47 1018.25 1019.03
1010.06 1009.86 1009.68 1009.48 1009.28 1009.07 1008.87 1008.69 1008.56 1008.51 1008.56 1008.71 1008.97 1009.32 1009.73 1010.16 1010.56 1010.89 1011.14 1011.30 1011.36 1011.37 1011.35 1011.35 1011.42 1011.57 1011.81 1012.16 1012.59 1013.06 1013.54 1014.00 1014.42 1014.79 1015.13 1015.45 1015.79 1016.17 1016.63 1017.18 1017.82 1018.52 1019.26 1019.98
1010.08 1009.83 1009.59 1009.35 1009.12 1008.91 1008.72 1008.58 1008.50 1008.51 1008.63 1008.85 1009.17 1009.57 1010.03 1010.50 1010.95 1011.34 1011.64 1011.86 1012.00 1012.08 1012.13 1012.20 1012.30 1012.48 1012.74 1013.08 1013.49 1013.94 1014.41 1014.87 1015.30 1015.70 1016.07 1016.44 1016.82 1017.25 1017.73 1018.27 1018.88 1019.53 1020.19 1020.81
1010.00 1009.74 1009.47 1009.21 1008.96 1008.75 1008.58 1008.47 1008.45 1008.52 1008.69 1008.96 1009.34 1009.79 1010.28 1010.80 1011.29 1011.73 1012.10 1012.39 1012.61 1012.76 1012.89 1013.01 1013.16 1013.36 1013.62 1013.95 1014.34 1014.77 1015.22 1015.67 1016.11 1016.53 1016.94 1017.35 1017.78 1018.23 1018.72 1019.25 1019.81 1020.39 1020.96 1021.49
Thickness
5799 5781 5769 5775 5780 5778 5777 5772 5772 5789 5811 5805 5798 5797 5805 5813 5813 5808 5805 5801 5796 5793 5792 5788 5783 5777 5770 5764 5758 5754 5749 5746 5744 5741 5738 5735 5734 5736 5737 5739 5740 5740 5740 5740
5778 5772 5786 5791 5790 5785 5779 5770 5774 5790 5810 5804 5793 5792 5803 5808 5809 5810 5806 5800 5795 5789 5786 5784 5780 5775 5769 5763 5758 5754 5750 5747 5745 5744 5741 5738 5737 5736 5736 5738 5738 5739 5739 5739
5767 5782 5797 5790 5783 5778 5777 5772 5776 5782 5796 5798 5788 5775 5786 5798 5804 5806 5806 5802 5797 5791 5785 5782 5778 5773 5768 5763 5759 5756 5751 5748 5746 5744 5740 5737 5734 5733 5732 5734 5736 5738 5738 5738
5773 5790 5790 5784 5781 5780 5767 5790 5791 5788 5775 5761 5773 5746 5770 5783 5789 5795 5797 5796 5793 5791 5786 5780 5776 5771 5768 5765 5760 5756 5752 5748 5746 5743 5740 5736 5733 5730 5732 5734 5735 5737 5737 5738
5771 5787 5783 5778 5787 5790 5782 5798 5794 5787 5772 5756 5760 5748 5755 5775 5776 5786 5794 5795 5792 5790 5785 5779 5776 5772 5768 5765 5760 5755 5751 5747 5745 5743 5742 5738 5734 5733 5733 5734 5734 5734 5735 5736
5778 5794 5792 5791 5800 5801 5800 5792 5781 5765 5750 5732 5747 5744 5745 5760 5773 5783 5790 5793 5791 5787 5784 5778 5775 5771 5766 5763 5759 5755 5750 5747 5746 5743 5741 5738 5735 5733 5732 5731 5731 5732 5732 5733
5761 5779 5794 5800 5786 5792 5790 5757 5729 5727 5715 5721 5746 5743 5747 5775 5786 5787 5787 5789 5789 5785 5780 5775 5771 5767 5764 5761 5758 5755 5751 5748 5746 5744 5741 5739 5737 5735 5733 5732 5731 5731 5730 5730
5737 5747 5782 5795 5786 5775 5776 5756 5724 5713 5710 5720 5741 5739 5757 5783 5791 5793 5791 5788 5786 5781 5779 5775 5771 5767 5764 5761 5758 5755 5751 5747 5745 5743 5741 5739 5737 5735 5734 5733 5732 5732 5731 5731
5739 5747 5788 5801 5805 5792 5774 5761 5759 5734 5727 5718 5725 5744 5762 5781 5783 5785 5784 5782 5779 5777 5777 5774 5771 5767 5764 5761 5758 5755 5751 5747 5745 5743 5740 5738 5737 5735 5734 5733 5733 5732 5731 5731
5757 5749 5774 5795 5802 5798 5790 5777 5747 5729 5713 5707 5721 5732 5740 5762 5769 5775 5776 5776 5776 5774 5773 5771 5769 5767 5764 5761 5759 5755 5751 5747 5744 5742 5741 5739 5737 5735 5734 5732 5730 5730 5729 5730
5763 5745 5758 5774 5774 5772 5777 5770 5753 5732 5726 5711 5707 5724 5765 5767 5773 5774 5774 5776 5775 5774 5772 5769 5767 5766 5764 5761 5757 5753 5750 5746 5743 5742 5740 5738 5736 5734 5732 5730 5730 5729 5728 5727
5762 5744 5737 5757 5780 5790 5779 5766 5750 5729 5726 5721 5713 5727 5777 5776 5776 5775 5774 5776 5775 5774 5772 5768 5765 5763 5761 5758 5755 5752 5749 5746 5744 5742 5739 5737 5734 5732 5730 5729 5728 5727 5726 5726
5760 5738 5724 5733 5748 5766 5765 5764 5757 5742 5728 5718 5713 5730 5771 5772 5772 5775 5775 5774 5773 5771 5768 5764 5761 5760 5758 5756 5754 5751 5748 5746 5744 5741 5738 5735 5733 5731 5729 5728 5727 5726 5725 5724
5767 5736 5725 5719 5729 5748 5752 5756 5757 5741 5721 5721 5727 5736 5753 5759 5764 5768 5771 5770 5769 5768 5766 5761 5757 5757 5756 5755 5753 5750 5747 5745 5743 5739 5736 5734 5732 5730 5729 5727 5726 5725 5724 5723
5753 5730 5735 5739 5750 5754 5752 5752 5754 5747 5739 5729 5734 5739 5745 5752 5758 5763 5767 5766 5763 5761 5760 5758 5756 5754 5753 5751 5750 5749 5746 5744 5741 5738 5735 5733 5732 5730 5727 5725 5724 5723 5722 5721
5735 5726 5727 5729 5742 5745 5744 5749 5751 5748 5746 5743 5740 5737 5751 5754 5755 5755 5759 5760 5756 5754 5754 5754 5754 5752 5750 5749 5748 5746 5745 5743 5739 5735 5733 5732 5730 5727 5724 5723 5721 5720 5719 5717
5718 5716 5707 5705 5724 5730 5719 5735 5739 5736 5738 5739 5729 5734 5745 5744 5744 5746 5749 5752 5751 5751 5751 5750 5749 5750 5748 5747 5747 5744 5743 5741 5737 5734 5732 5730 5727 5724 5722 5720 5717 5715 5714 5713
5710 5704 5694 5693 5703 5691 5710 5737 5739 5729 5725 5733 5734 5735 5737 5738 5739 5742 5744 5745 5745 5745 5744 5745 5745 5745 5745 5744 5743 5742 5740 5737 5734 5731 5729 5727 5724 5721 5719 5716 5714 5712 5710 5708
5711 5699 5685 5678 5679 5688 5711 5725 5727 5718 5708 5722 5725 5728 5730 5733 5734 5730 5734 5737 5738 5739 5738 5739 5740 5740 5740 5739 5738 5737 5735 5732 5730 5727 5726 5724 5722 5718 5715 5712 5710 5707 5704 5702
5699 5694 5681 5673 5673 5672 5696 5720 5730 5719 5695 5714 5720 5719 5721 5724 5712 5714 5724 5728 5730 5731 5732 5732 5732 5733 5732 5733 5734 5730 5728 5726 5723 5723 5722 5720 5718 5714 5710 5707 5704 5701 5698 5695
5675 5674 5670 5668 5668 5677 5699 5714 5718 5691 5689 5708 5712 5713 5714 5711 5709 5711 5716 5718 5720 5722 5723 5723 5724 5723 5724 5727 5727 5723 5720 5718 5718 5717 5715 5713 5711 5708 5704 5700 5697 5694 5691 5687
5663 5661 5662 5661 5658 5665 5695 5700 5691 5689 5699 5702 5703 5705 5705 5704 5704 5705 5705 5706 5709 5710 5712 5713 5713 5711 5713 5716 5717 5713 5709 5709 5709 5708 5705 5703 5701 5699 5696 5691 5687 5684 5682 5677
5660 5662 5660 5661 5661 5673 5684 5686 5689 5692 5692 5694 5696 5698 5698 5695 5693 5694 5694 5695 5697 5698 5698 5699 5700 5700 5701 5703 5704 5701 5698 5698 5697 5695 5692 5690 5688 5685 5683 5680 5677 5674 5671 5667
5658 5665 5659 5657 5661 5667 5672 5677 5681 5685 5687 5689 5691 5691 5691 5686 5684 5684 5683 5683 5684 5685 5686 5686 5686 5687 5687 5689 5690 5690 5689 5688 5687 5683 5680 5678 5675 5671 5669 5667 5664 5662 5659 5655
5651 5655 5650 5647 5652 5657 5661 5665 5670 5675 5679 5680 5681 5681 5680 5677 5675 5674 5672 5672 5672 5673 5674 5675 5674 5673 5673 5675 5675 5676 5676 5677 5674 5670 5668 5665 5662 5658 5654 5650 5647 5646 5644 5643
5644 5645 5643 5642 5649 5648 5650 5657 5662 5664 5666 5668 5668 5667 5667 5668 5666 5664 5662 5661 5661 5661 5662 5662 5661 5661 5662 5663 5663 5663 5664 5665 5663 5659 5655 5652 5649 5646 5642 5638 5632 5629 5627 5625